TimeCDT,TemperatureF,Dew PointF,Humidity,Sea Level PressureIn,VisibilityMPH,Wind Direction,Wind SpeedMPH,Gust SpeedMPH,PrecipitationIn,Events,Conditions,WindDirDegrees,DateUTC
12:15 AM,58.5,22.8,25,29.80,10.0,SW,9.2,-,N/A,,Clear,230,2013-03-16 05:15:00
12:35 AM,50.2,29.1,44,29.79,10.0,SSW,10.4,-,N/A,,Clear,210,2013-03-16 05:35:00
12:55 AM,50.4,29.3,44,29.79,10.0,SSW,10.4,-,N/A,,Clear,210,2013-03-16 05:55:00
1:15 AM,51.6,28.0,40,29.78,10.0,SSW,10.4,-,N/A,,Clear,210,2013-03-16 06:15:00
1:35 AM,51.1,27.9,41,29.78,10.0,SSW,10.4,-,N/A,,Clear,210,2013-03-16 06:35:00
1:55 AM,52.7,26.2,36,29.76,10.0,SSW,11.5,-,N/A,,Clear,200,2013-03-16 06:55:00
2:15 AM,49.3,28.0,44,29.76,10.0,SSW,9.2,-,N/A,,Clear,210,2013-03-16 07:15:00
2:35 AM,51.4,26.2,38,29.75,10.0,SSW,10.4,-,N/A,,Clear,210,2013-03-16 07:35:00
2:55 AM,49.1,27.7,44,29.75,10.0,SSW,10.4,-,N/A,,Clear,210,2013-03-16 07:55:00
3:15 AM,52.9,25.5,35,29.75,10.0,SSW,10.4,-,N/A,,Clear,210,2013-03-16 08:15:00
3:35 AM,56.1,23.7,29,29.74,10.0,SSW,13.8,-,N/A,,Clear,210,2013-03-16 08:35:00
3:55 AM,59.0,23.2,25,29.74,10.0,SSW,13.8,-,N/A,,Clear,210,2013-03-16 08:55:00
4:15 AM,55.0,24.1,30,29.73,10.0,SSW,12.7,-,N/A,,Clear,210,2013-03-16 09:15:00
4:35 AM,54.5,24.1,31,29.74,10.0,NW,11.5,17.3,N/A,,Clear,310,2013-03-16 09:35:00
4:55 AM,54.3,23.4,30,29.74,10.0,West,12.7,-,N/A,,Clear,280,2013-03-16 09:55:00
5:15 AM,52.3,23.5,33,29.74,10.0,West,11.5,-,N/A,,Clear,260,2013-03-16 10:15:00
5:35 AM,54.5,21.6,28,29.74,10.0,WSW,11.5,-,N/A,,Clear,250,2013-03-16 10:35:00
5:55 AM,52.9,21.7,30,29.74,10.0,WSW,10.4,-,N/A,,Clear,250,2013-03-16 10:55:00
6:15 AM,50.2,22.1,33,29.75,10.0,West,10.4,-,N/A,,Clear,270,2013-03-16 11:15:00
6:35 AM,48.2,23.4,38,29.76,10.0,West,11.5,-,N/A,,Clear,280,2013-03-16 11:35:00
7:15 AM,48.0,24.6,40,29.76,10.0,WNW,10.4,13.8,N/A,,Clear,300,2013-03-16 12:15:00
7:35 AM,47.8,25.0,41,29.78,10.0,NW,15.0,-,N/A,,Clear,310,2013-03-16 12:35:00
7:55 AM,47.5,25.3,42,29.78,10.0,NW,12.7,-,N/A,,Clear,310,2013-03-16 12:55:00
8:15 AM,46.6,25.7,44,29.80,10.0,NW,13.8,-,N/A,,Clear,320,2013-03-16 13:15:00
8:35 AM,44.6,30.9,59,29.82,10.0,North,20.7,25.3,N/A,,Clear,10,2013-03-16 13:35:00
8:55 AM,44.1,33.8,67,29.83,10.0,North,17.3,24.2,N/A,,Clear,10,2013-03-16 13:55:00
9:15 AM,44.1,36.5,75,29.85,10.0,NNE,20.7,26.5,N/A,,Clear,20,2013-03-16 14:15:00
9:35 AM,45.1,37.4,74,29.85,10.0,NNE,24.2,33.4,N/A,,Clear,30,2013-03-16 14:35:00
9:55 AM,46.6,37.6,71,29.86,10.0,NNE,24.2,32.2,N/A,,Clear,30,2013-03-16 14:55:00
10:15 AM,47.7,37.0,67,29.87,10.0,NNE,26.5,32.2,N/A,,Clear,30,2013-03-16 15:15:00
10:35 AM,49.1,36.7,62,29.87,10.0,NE,27.6,34.5,N/A,,Clear,40,2013-03-16 15:35:00
10:55 AM,50.2,36.5,59,29.88,10.0,NE,25.3,34.5,N/A,,Clear,40,2013-03-16 15:55:00
11:15 AM,51.3,36.5,57,29.89,10.0,NNE,24.2,31.1,N/A,,Clear,30,2013-03-16 16:15:00
11:35 AM,51.6,36.5,56,29.89,10.0,NE,25.3,31.1,N/A,,Clear,50,2013-03-16 16:35:00
11:55 AM,52.3,36.5,55,29.88,10.0,NNE,23.0,29.9,N/A,,Clear,30,2013-03-16 16:55:00
12:15 PM,52.3,36.5,55,29.89,10.0,NNE,20.7,29.9,N/A,,Clear,20,2013-03-16 17:15:00
12:35 PM,52.2,36.5,55,29.89,10.0,NE,23.0,27.6,N/A,,Clear,40,2013-03-16 17:35:00
12:55 PM,52.7,36.1,53,29.90,10.0,NE,20.7,26.5,N/A,,Clear,50,2013-03-16 17:55:00
1:15 PM,53.1,36.1,53,29.89,10.0,NNE,18.4,27.6,N/A,,Clear,30,2013-03-16 18:15:00
1:35 PM,53.8,36.3,52,29.89,10.0,NNE,16.1,26.5,N/A,,Clear,20,2013-03-16 18:35:00
1:55 PM,53.8,36.5,52,29.89,10.0,NE,17.3,26.5,N/A,,Clear,40,2013-03-16 18:55:00
2:15 PM,55.0,36.1,49,29.87,10.0,NNE,15.0,24.2,N/A,,Clear,30,2013-03-16 19:15:00
2:35 PM,54.5,35.8,49,29.87,10.0,NE,18.4,25.3,N/A,,Clear,50,2013-03-16 19:35:00
2:55 PM,54.3,35.8,50,29.86,10.0,NNE,15.0,25.3,N/A,,Clear,30,2013-03-16 19:55:00
3:15 PM,55.8,36.0,47,29.86,10.0,ENE,17.3,23.0,N/A,,Clear,60,2013-03-16 20:15:00
3:35 PM,55.9,36.1,47,29.85,10.0,NE,16.1,21.9,N/A,,Clear,50,2013-03-16 20:35:00
3:55 PM,54.7,36.0,49,29.85,10.0,NE,15.0,19.6,N/A,,Clear,40,2013-03-16 20:55:00
4:15 PM,55.8,36.0,47,29.85,10.0,NE,15.0,19.6,N/A,,Clear,40,2013-03-16 21:15:00
4:35 PM,55.4,35.8,48,29.85,10.0,NE,16.1,20.7,N/A,,Clear,40,2013-03-16 21:35:00
4:55 PM,55.4,35.8,48,29.84,10.0,ENE,12.7,-,N/A,,Clear,60,2013-03-16 21:55:00
5:15 PM,55.8,36.0,47,29.84,10.0,NE,15.0,-,N/A,,Clear,50,2013-03-16 22:15:00
5:35 PM,55.2,35.8,48,29.85,10.0,ENE,15.0,19.6,N/A,,Clear,70,2013-03-16 22:35:00
5:55 PM,56.1,36.0,47,29.85,10.0,ENE,15.0,18.4,N/A,,Clear,60,2013-03-16 22:55:00
6:15 PM,54.7,35.8,49,29.85,10.0,ENE,12.7,-,N/A,,Clear,60,2013-03-16 23:15:00
6:35 PM,54.1,35.6,50,29.85,10.0,ENE,13.8,18.4,N/A,,Clear,60,2013-03-16 23:35:00
6:55 PM,53.1,35.4,51,29.85,10.0,ENE,11.5,-,N/A,,Clear,60,2013-03-16 23:55:00
7:15 PM,52.2,35.1,52,29.85,10.0,ENE,12.7,-,N/A,,Clear,60,2013-03-17 00:15:00
7:35 PM,51.3,35.6,55,29.85,10.0,ENE,10.4,-,N/A,,Clear,70,2013-03-17 00:35:00
7:55 PM,49.6,33.4,54,29.85,10.0,NE,11.5,16.1,N/A,,Clear,50,2013-03-17 00:55:00
8:15 PM,48.6,32.9,55,29.85,10.0,NE,12.7,-,N/A,,Clear,40,2013-03-17 01:15:00
8:35 PM,48.2,32.9,55,29.86,10.0,NE,12.7,-,N/A,,Clear,50,2013-03-17 01:35:00
8:55 PM,47.7,32.9,57,29.87,10.0,NE,13.8,-,N/A,,Clear,40,2013-03-17 01:55:00
9:15 PM,47.3,32.4,56,29.88,10.0,NE,12.7,-,N/A,,Clear,40,2013-03-17 02:15:00
9:35 PM,46.6,32.2,57,29.88,10.0,NNE,10.4,-,N/A,,Clear,30,2013-03-17 02:35:00
9:55 PM,45.7,31.8,58,29.88,10.0,NE,16.1,-,N/A,,Clear,50,2013-03-17 02:55:00
10:15 PM,45.1,31.8,60,29.90,10.0,NE,15.0,20.7,N/A,,Clear,40,2013-03-17 03:15:00
10:35 PM,44.1,31.1,60,29.91,10.0,NE,17.3,-,N/A,,Clear,40,2013-03-17 03:35:00
10:55 PM,43.0,31.1,63,29.91,10.0,NE,15.0,-,N/A,,Clear,40,2013-03-17 03:55:00
11:15 PM,42.3,30.7,64,29.92,10.0,NE,16.1,21.9,N/A,,Clear,40,2013-03-17 04:15:00
11:35 PM,41.5,30.6,65,29.90,10.0,NE,19.6,-,N/A,,Clear,40,2013-03-17 04:35:00
11:55 PM,40.8,30.6,67,29.92,10.0,NE,13.8,-,N/A,,Clear,40,2013-03-17 04:55:00